Weather History for GMMX - October, 2013

Change the Weather History Date:

Monday, October 14, 2013

  Actual Average Record
Temperature  
Mean Temperature 71 °F -  
Max Temperature 85 °F 76 °F 95 °F (2011)
Min Temperature 57 °F 54 °F 50 °F (2000)
Cooling Degree Days 6    
Growing Degree Days 21 (Base 50)    
Moisture  
Dew Point 55 °F    
Average Humidity 58    
Maximum Humidity 88    
Minimum Humidity 17    
Precipitation  
Precipitation 0.00 in 0.04 in - ()
Sea Level Pressure  
Sea Level Pressure 30.12 in    
Wind  
Wind Speed 4 mph ()    
Max Wind Speed 10 mph    
Max Gust Speed -    
Visibility 6.1 miles    
Events      
Averages and records for this station are not official NWS values.
T = Trace of Precipitation, MM = Missing Value Source: Averaged Metar Reports

Daily Weather History Graph

Daily Weather History Graph

Search for Another Location

Airport or City:

Trip Planner

Search our weather history database for the weather conditions in past years. The results will help you decide how hot, cold, wet, or windy it might be!

Date:

Astronomy

Oct. 14, 2013 Rise Set
Actual Time 7:34 AM WEST 7:01 PM WEST
Civil Twilight 7:10 AM WEST 7:25 PM WEST
Nautical Twilight 6:41 AM WEST 7:53 PM WEST
Astronomical Twilight 6:13 AM WEST 8:22 PM WEST
Moon 4:07 PM WEST (10/14) 2:53 AM WEST (10/14)
Length of Visible Light 12h 15m
Length of Day
11h 26m
Waxing Gibbous, 77% of the Moon is Illuminated
Oct 14
Waxing Gibbous
Oct 19
Full
Oct 27
Last Quarter
Nov 3
New
Nov 10
First Quarter

Hourly Weather History & Observations

Time (WEST) Temp. Heat Index Dew Point Humidity Pressure Visibility Wind Dir Wind Speed Gust Speed Precip Events Conditions
12:00 AM 68.0 °F - 55.4 °F 64% 30.15 in - ENE 6.9 mph - N/A   Clear
12:30 AM 68.0 °F - 55.4 °F 64% 30.15 in - ENE 4.6 mph - N/A   Clear
1:00 AM 67 °F - 56 °F 59% 30.10 in 6 mi NE 4.6 mph - -  
1:00 AM 68.0 °F - 57.2 °F 68% 30.12 in - NE 5.8 mph - N/A   Clear
1:30 AM 66.2 °F - 55.4 °F 68% 30.12 in - NE 4.6 mph - N/A   Clear
2:00 AM 66.2 °F - 57.2 °F 73% 30.12 in - ENE 6.9 mph - N/A   Clear
2:30 AM 66.2 °F - 57.2 °F 73% 30.12 in - ENE 3.5 mph - N/A   Clear
3:00 AM 64.4 °F - 57.2 °F 77% 30.12 in - East 4.6 mph - N/A   Clear
3:30 AM 64.4 °F - 57.2 °F 77% 30.12 in - East 2.3 mph - N/A   Clear
4:00 AM 65 °F - 57 °F 67% 30.07 in 6 mi ESE 4.6 mph - -  
4:00 AM 64.4 °F - 57.2 °F 77% 30.09 in - ESE 4.6 mph - N/A   Clear
4:30 AM 64.4 °F - 55.4 °F 73% 30.09 in - East 3.5 mph - N/A   Clear
5:00 AM 62.6 °F - 57.2 °F 82% 30.12 in - Calm Calm - N/A   Clear
5:30 AM 59.0 °F - 55.4 °F 88% 30.12 in - West 3.5 mph - N/A   Clear
6:00 AM 57.2 °F - 53.6 °F 88% 30.12 in - West 3.5 mph - N/A   Clear
6:30 AM 60.8 °F - 53.6 °F 77% 30.12 in - SW 6.9 mph - N/A   Clear
7:00 AM 59 °F - 54 °F 77% 30.13 in 6 mi SW 6.9 mph - -   Clear
7:00 AM 59.0 °F - 53.6 °F 82% 30.12 in - SW 6.9 mph - N/A   Clear
7:30 AM 59.0 °F - 53.6 °F 82% 30.15 in - SW 6.9 mph - N/A   Clear
8:00 AM 59.0 °F - 55.4 °F 88% 30.15 in - SW 5.8 mph - N/A   Clear
8:30 AM 60.8 °F - 55.4 °F 82% 30.15 in - Variable 2.3 mph - N/A   Clear
9:00 AM 62.6 °F - 57.2 °F 82% 30.15 in - Variable 2.3 mph - N/A   Clear
9:30 AM 64.4 °F - 57.2 °F 77% 30.18 in - WNW 3.5 mph - N/A   Clear
10:00 AM 67 °F - 58 °F 64% 30.14 in 6 mi North 2.3 mph - -   Clear
10:00 AM 66.2 °F - 57.2 °F 73% 30.18 in - Variable 2.3 mph - N/A   Clear
10:30 AM 69.8 °F - 57.2 °F 64% 30.18 in - Calm Calm - N/A   Clear
11:00 AM 71.6 °F - 57.2 °F 60% 30.18 in - Calm Calm - N/A   Clear
11:30 AM 71.6 °F - 57.2 °F 60% 30.18 in - Variable 1.2 mph - N/A   Clear
12:00 PM 73.4 °F - 57.2 °F 57% 30.15 in - NW 3.5 mph - N/A   Clear
12:30 PM 73.4 °F - 57.2 °F 57% 30.15 in - NW 4.6 mph - N/A   Clear
1:00 PM 76 °F - 57 °F 42% 30.09 in 6 mi NNE 3.5 mph - -   Clear
1:00 PM 75.2 °F - 57.2 °F 53% 30.15 in - North 4.6 mph - N/A   Clear
1:30 PM 77.0 °F - 57.2 °F 50% 30.12 in - NE 3.5 mph - N/A   Clear
2:00 PM 80.6 °F 80.5 °F 55.4 °F 42% 30.12 in - NNE 4.6 mph - N/A   Clear
2:30 PM 80.6 °F 80.5 °F 55.4 °F 42% 30.12 in - North 4.6 mph - N/A   Clear
3:00 PM 82.4 °F 81.7 °F 55.4 °F 39% 30.09 in 6.2 mi North 5.8 mph - N/A   Scattered Clouds
3:30 PM 82.4 °F 81.7 °F 55.4 °F 39% 30.09 in 6.2 mi NW 3.5 mph - N/A   Scattered Clouds
4:00 PM 84 °F - 54 °F 25% 30.01 in 6 mi NNE 3.5 mph - -   Scattered Clouds
4:00 PM 84.2 °F 82.8 °F 53.6 °F 35% 30.09 in 6.2 mi Variable 3.5 mph - N/A   Scattered Clouds
4:30 PM 84.2 °F - 51.8 °F 33% 30.09 in 6.2 mi Variable 3.5 mph - N/A   Scattered Clouds
5:00 PM 84.2 °F - 51.8 °F 33% 30.09 in 6.2 mi NW 3.5 mph - N/A   Scattered Clouds
5:30 PM 86.0 °F - 50.0 °F 29% 30.09 in 6.2 mi NNW 4.6 mph - N/A   Scattered Clouds
6:00 PM 84.2 °F - 50.0 °F 30% 30.09 in 6.2 mi NW 4.6 mph - N/A   Scattered Clouds
6:30 PM 84.2 °F - 50.0 °F 30% 30.09 in 6.2 mi North 4.6 mph - N/A   Scattered Clouds
7:00 PM 82 °F - 45 °F 17% 30.02 in 6 mi NNW 6.9 mph - -   Scattered Clouds
7:00 PM 82.4 °F - 44.6 °F 26% 30.09 in 6.2 mi NNW 8.1 mph - N/A   Scattered Clouds
7:30 PM 82.4 °F - 42.8 °F 25% 30.12 in 6.2 mi North 6.9 mph - N/A   Scattered Clouds
8:00 PM 80.6 °F - 48.2 °F 32% 30.12 in 6.2 mi North 9.2 mph - N/A   Scattered Clouds
8:30 PM 78.8 °F - 48.2 °F 34% 30.15 in - NNE 8.1 mph - N/A   Clear
9:00 PM 77.0 °F - 55.4 °F 47% 30.15 in - NNE 9.2 mph - N/A   Clear
9:30 PM 75.2 °F - 57.2 °F 53% 30.15 in - NNE 10.4 mph - N/A   Clear
10:00 PM 73 °F - 58 °F 49% 30.11 in 6 mi NNE 8.1 mph - -   Clear
10:00 PM 73.4 °F - 57.2 °F 57% 30.15 in - NNE 8.1 mph - N/A   Clear
10:30 PM 71.6 °F - 57.2 °F 60% 30.18 in - NNE 6.9 mph - N/A   Clear
11:00 PM 69.8 °F - 57.2 °F 64% 30.18 in - NNE 6.9 mph - N/A   Clear
11:30 PM 69.8 °F - 57.2 °F 64% 30.18 in - NE 6.9 mph - N/A   Clear